Weather in Gorno-Altaysk

Russia / Altai Republic     51°57′29″N   85°57′37″E
temp.,
°C
wind,
m/s
gust,
m/s
humid.,
%
clouds,
%
prec.,
mm/h
press.,
hPa
HPBL,
m
6 may, thu
thu601:00+9se2275100 0.0 101216
04:00+10se2275100 0.0 101021
07:00+10sse2272100 0.0 101042
10:00+17sse2355100 0.0 1009280
13:00+24ssw2334100 0.0 1007794
16:00+25wsw1429100 0.0 10071369
19:00+21nnw1160100 0.0 100711
22:00+16sse226698 0.0 100816
7 may, fri
fri701:00+14sse3463100 0.0 100755
04:00+14s3754100 0.0 1007109
07:00+14ssw3561100 0.0 100886
10:00+19w2753100 0.0 1010536
13:00+19nw5659100 0.0 1011819
16:00+12nw3794100 2.8 1014528
19:00+11ssw2492100 5.4 1017224
22:00+10ssw348966 0.0 101952
8 may, sat
sat801:00+8sw22874 0.0 102021
04:00+7ssw119018 0.0 102210
07:00+8sw11884 0.0 102331
10:00+13nw22580 0.0 1022799
13:00+15nw33460 0.0 10211321
16:00+16nw33410 0.0 10201319
19:00+15nnw12520 0.0 1021930
22:00+9sse22660 0.0 102213
9 may, sun
sun901:00+8s22720 0.0 102222
04:00+7s22751 0.0 102126
07:00+8s23733 0.0 102265
10:00+16s11465 0.0 1020537
13:00+19nne223646 0.0 10181725
16:00+19n3239100 0.0 10171615
19:00+17nne235798 0.0 101789
22:00+11ene117231 0.0 101711
10 may, mon
mon1001:00+8ese11827 0.0 101610
04:00+7se118848 0.0 101511
07:00+9ese1181100 0.0 101450
10:00+14ene1162100 0.0 1012370
13:00+17ne335198 0.0 1010757
16:00+20ne444195 0.0 10081061
19:00+18nne2553100 0.0 1006226
22:00+11se0169100 0.0 100710